Other Public Products
Issued by NWS Grand Forks, ND

Home | Current Version | Previous Version | Text Only | Print | Product List | Glossary On
Versions: 1 2 3 4 5 6 7 8 9 10 11 12 13 14 15 16 17 18 19 20 21 22 23 24 25 26 27 28 29 30 31 32 33 34 35 36 37 38 39 40 41 42 43 44 45 46 47 48 49 50
000
FPUS83 KFGF 241810
OPUFGF
PRAIRIE TO PINES WEATHER ROUNDUP
NATIONAL WEATHER SERVICE EASTERN NORTH DAKOTA/GRAND FORKS ND
1200 PM CST FRI FEB 24 2017

 **SATELLITE DATA USED TO AUGMENT SKY COVER AT AUTOMATED STATIONS**
 *****  WEATHER ACROSS EASTERN NORTH DAKOTA  *****

CITY           SKY/WX    TMP DP  RH WIND       PRES   REMARKS
GRAND FORKS    FAIR      21   7  54 N12       30.14F WCI   9
6HR MIN TEMP:  17; 6HR MAX TEMP:  21; 6HR PCP: TRACE;

GRAND FORKS AF CLOUDY    20  11  67 N12       30.14F WCI   8
GRAND CITY NWS NOT AVBL
BUXTON         NOT AVBL
DEVILS LAKE    FLURRIES  19  13  77 N10       30.14R WCI   7
6HR MIN TEMP:  14; 6HR MAX TEMP:  19; 6HR PCP: TRACE;

FARGO          FAIR      25  14  63 N16       30.10F WCI  12
6HR MIN TEMP:  19; 6HR MAX TEMP:  25;

WAHPETON ARPT    N/A     23  14  68 N17G28    30.07S WCI   9
$$

 *****  WEATHER ACROSS CENTRAL AND WESTERN NORTH DAKOTA  *****

CITY           SKY/WX    TMP DP  RH WIND       PRES   REMARKS
JAMESTOWN      FAIR      24  15  68 N15       30.09S WCI  11
6HR MIN TEMP:  16; 6HR MAX TEMP:  24;

BISMARCK       FAIR      28  17  63 N10       30.15S WCI  19
6HR MIN TEMP:  18; 6HR MAX TEMP:  28;

MINOT          FAIR      26  10  50 CALM      30.14S
6HR MIN TEMP:  16; 6HR MAX TEMP:  27;

MINOT AFB      FAIR      24  10  53 CALM      30.14F
6HR MIN TEMP:  10; 6HR MAX TEMP:  24;

GARRISON         N/A     25  17  72 CALM      30.15R
6HR MIN TEMP:  16; 6HR MAX TEMP:  26;

WILLISTON      CLOUDY    25  16  68 SW8       30.15F WCI  16
6HR MIN TEMP:  15; 6HR MAX TEMP:  25;

DICKINSON      CLOUDY    21  12  68 CALM      30.11S
6HR MIN TEMP:   3; 6HR MAX TEMP:  22;

HETTINGER      CLOUDY    24  12  60 SW3       30.13S
6HR MIN TEMP:  10; 6HR MAX TEMP:  26;

$$

 *****  OTHER OBSERVATIONS NORTHEAST NORTH DAKOTA  *****

CITY           SKY/WX    TMP DP  RH WIND       PRES   REMARKS
WALHALLA       NOT AVBL
LANGDON        NOT AVBL
CAVALIER         N/A     18  12  79 N14       30.16S WCI   4
GRAFTON        FAIR      16  10  79 N9        30.18S WCI   4
CANDO          NOT AVBL
FORT TOTTEN      N/A     22  17  79 N6        29.95S WCI  14
ROLLA          FAIR      16  12  86 N10       30.12F WCI   3
RUGBY            N/A     16  14  93 CALM      30.15S
 ***** THE ABOVE OBSERVATIONS ARE NON NWS ARE NOT QUALITY
        CONTROLLED AND MAY MIS-REPORT RAIN FOR SNOW...
$$

 *****  OTHER OBSERVATIONS SOUTHEAST NORTH DAKOTA *****

CITY           SKY/WX    TMP DP  RH WIND       PRES   REMARKS
COOPERSTOWN    FLURRIES  21  18  86 N12       30.10S WCI   9
VALLEY CITY    CLOUDY    23  21  93 N12       30.11S WCI  12
OAKES          NOT AVBL
GWINNER        CLOUDY    27  21  80 N20       30.08F WCI  13
SHEYENNE NWR     N/A     24  13  62 N13       29.95S WCI  12
BUFFALO        NOT AVBL
WYNDMERE       NOT AVBL
 ***** THE ABOVE OBSERVATIONS ARE NON NWS ARE NOT QUALITY
       CONTROLLED AND MAY MIS-REPORT RAIN FOR SNOW...
$$

  *****  WEATHER ACROSS NORTHERN MINNESOTA  *****

CITY           SKY/WX    TMP DP  RH WIND       PRES   REMARKS
FLAG ISLAND    FAIR      12   0  57 N10       30.07S WCI  -1
WARROAD        FAIR      16   5  62 NW8       30.08S WCI   5
ROSEAU         FAIR      16   7  67 W6        30.09F WCI   7
HALLOCK        FAIR      18   9  68 N16G22    30.14S WCI   3
THF RVR FALLS  FAIR      19   8  62 N16       30.10F WCI   4
6HR MIN TEMP:   9; 6HR MAX TEMP:  20; 6HR PCP: TRACE;

HALSTAD          N/A     22  14  72 N16         N/A  WCI   8
FOSSTON        FAIR      21  10  63 N17       30.07R WCI   7
BAUDETTE       FAIR      14   2  58 NW15      30.05F WCI  -1
6HR MIN TEMP:   2; 6HR MAX TEMP:  15;

WASKISH        PTSUNNY   19   5  53 N7        30.01F WCI  10
CROOKSTON      FAIR      19  10  68 N16       30.13F WCI   5
$$
  *****  WEATHER ACROSS CENTRAL AND WEST MINNESOTA  *****

CITY           SKY/WX    TMP DP  RH WIND       PRES   REMARKS
BEMIDJI        FAIR      17   6  63 NW12G17   30.02S WCI   4
PARK RAPIDS    FAIR      19   4  51 N12       29.98F WCI   7
6HR MIN TEMP:  11; 6HR MAX TEMP:  19;

WADENA         FAIR      19   9  63 N18       29.98S WCI   4
DETROIT LAKES  FAIR      23  14  68 N8G22     30.03S WCI  14
MOORHEAD       FAIR      21  14  73 N21       30.10S WCI   6
FERGUS FALLS   FAIR      25  12  58 N17G26    30.07S WCI  11
ELBOW LAKE     FAIR      23  11  60 N20G26    30.01S WCI   8
MORRIS MN      FAIR      27  12  54 N21G30    29.98F WCI  13
STAPLES        FAIR      19   9  63 N17       29.97F WCI   4
WHEATON        FAIR      25  16  68 N21G28    30.06F WCI  10
$$
  *****  WEATHER ELSEWHERE ACROSS MINNESOTA  *****

CITY           SKY/WX    TMP DP  RH WIND       PRES   REMARKS
DULUTH         CLOUDY    17  10  74 N10       29.90F WCI   5
6HR MIN TEMP:  16; 6HR MAX TEMP:  18;

INTRNTL FALLS  FAIR      15   1  53 N8        30.03S WCI   4
6HR MIN TEMP:   8; 6HR MAX TEMP:  15;

ELY            FAIR      14   1  57 N7        29.95S WCI   4
CLOQUET        PTSUNNY   18  10  73 N10G17    29.92S WCI   6
BRAINERD       FAIR      20   9  62 N15       29.95F WCI   6
6HR MIN TEMP:  15; 6HR MAX TEMP:  20;

HIBBING        FAIR      15   4  61 N12       29.95F WCI   2
6HR MIN TEMP:  12; 6HR MAX TEMP:  15;

ALEXANDRIA     FAIR      23   9  55 N17       29.95F WCI   9
6HR MIN TEMP:  17; 6HR MAX TEMP:  23;

SAINT CLOUD    FAIR      23  11  60 N18G26    29.91S WCI   9
6HR MIN TEMP:  21; 6HR MAX TEMP:  23;

MINNEAPOLIS    CLOUDY    27  16  63 N15G23    29.84F WCI  15
6HR MIN TEMP:  25; 6HR MAX TEMP:  27;

$$

  *****  WEATHER ACROSS SOUTH DAKOTA  *****

CITY           SKY/WX    TMP DP  RH WIND       PRES   REMARKS
SIOUX FALLS    CLOUDY    24  14  65 N22G29    29.93R WCI   9
6HR MIN TEMP:  21; 6HR MAX TEMP:  24; 6HR PCP: TRACE;

BROOKINGS      FAIR      25  11  55 N26G35    29.93F WCI   9
WATERTOWN      FAIR      25  11  55 N26G32    29.97F WCI   9
6HR MIN TEMP:  17; 6HR MAX TEMP:  25;

HURON          FAIR      29  12  49 N22G30    30.05F WCI  15
6HR MIN TEMP:  20; 6HR MAX TEMP:  29;

SISSETON         N/A     25  16  68 N23       30.04S WCI  10
ABERDEEN       PTSUNNY   28  15  58 N15       30.07F WCI  16
6HR MIN TEMP:  19; 6HR MAX TEMP:  29;

MITCHELL       FAIR      28  15  58 N24G35    30.03S WCI  14
PIERRE         CLOUDY    28  12  51 N14       30.10F WCI  17
6HR MIN TEMP:  19; 6HR MAX TEMP:  29;

MOBRIDGE       FAIR      31  13  47 N16       30.09S WCI  20
RAPID CITY     CLOUDY    21  15  78 CALM      30.08F
6HR MIN TEMP:  17; 6HR MAX TEMP:  21; 6HR PCP: TRACE;

$$

  *****  SOME WEATHER IN NEARBY STATES *****

CITY           SKY/WX    TMP DP  RH WIND       PRES   REMARKS
GLASGOW MT     CLOUDY    29  23  78 SE10      30.09S WCI  20
6HR MIN TEMP:  24; 6HR MAX TEMP:  29;

GREAT FALLS MT CLOUDY    27  20  75 W5        30.01R WCI  22
6HR MIN TEMP:  23; 6HR MAX TEMP:  28;

CHEYENNE WY    CLOUDY    16   9  74 E5        29.91R WCI   9
6HR MIN TEMP:  13; 6HR MAX TEMP:  18; 6HR PCP:  0.03;

SCOTTSBLUFF NE LGT SNOW  23  16  74 E7        30.03R WCI  15
6HR MIN TEMP:  20; 6HR MAX TEMP:  24; 6HR PCP: TRACE;

OMAHA NE       SNOW      25  20  81 N26G37    29.81R VSB 1/2 WCI   9
6HR MIN TEMP:  25; 6HR MAX TEMP:  32; 6HR PCP:  0.02;

DES MOINES IA  FRZ DRZL  32  29  88 N18G31    29.67S FOG     WCI  20
6HR MIN TEMP:  32; 6HR MAX TEMP:  35; 6HR PCP:  0.05;

DAVENPORT IA   CLOUDY    38  35  89 NE13      29.52R
6HR MIN TEMP:  37; 6HR MAX TEMP:  38; 6HR PCP: TRACE;

CHICAGO IL     LGT RAIN  39  37  92 N13       29.46F FOG
6HR MIN TEMP:  39; 6HR MAX TEMP:  40; 6HR PCP:  0.05;

EAU CLAIRE WI  LGT SNOW  26  21  81 N13G20    29.76S WCI  15
6HR MIN TEMP:  26; 6HR MAX TEMP:  28; 6HR PCP:  0.10;

LA CROSSE WI   LGT SNOW  32  28  85 N10       29.68S VSB 1   WCI  24
6HR MIN TEMP:  31; 6HR MAX TEMP:  32; 6HR PCP:  0.05;

$$

  *****  SOME NATIONAL WEATHER *****

CITY           SKY/WX    TMP DP  RH WIND       PRES   REMARKS
LA GUARDIA NY  FAIR      68  52  56 S14       29.89F
6HR MIN TEMP:  53; 6HR MAX TEMP:  69;


USA.gov is the U.S. government's official web portal to all federal, state and local government web resources and services.